GW5267 Weather Reports


time (UTC)temp
C
wind
direction
speed
KPH
gust
KPH
rain 1hr
cm
rain 24hr
cm
rain mn
cm
humidity
%
barometer
mb
20260510071603 12 241 0.0 0.0 0.00 0.00 0.00 86 1012.6
20260510071100 11 210 0.0 1.6 0.00 0.00 0.00 90 1012.6
20260510070557 11 348 0.0 0.0 0.00 0.00 0.00 89 1012.4
20260510070054 11 98 0.0 6.4 0.00 0.00 0.00 88 1012.4
20260510065550 11 309 0.0 3.2 0.00 0.00 0.00 90 1012.5
20260510065046 11 270 0.0 0.0 0.00 0.00 0.00 87 1012.4
20260510064543 12 126 0.0 1.6 0.00 0.00 0.00 85 1012.5
20260510064040 12 135 0.0 1.6 0.00 0.00 0.00 84 1012.5
20260510063536 12 148 4.8 4.8 0.00 0.00 0.00 84 1012.5
20260510063034 12 108 3.2 4.8 0.00 0.00 0.00 84 1012.5
20260510062530 13 199 4.8 4.8 0.00 0.00 0.00 83 1012.6
20260510062025 13 158 4.8 6.4 0.00 0.00 0.00 82 1012.6
20260510061522 13 252 1.6 9.7 0.00 0.00 0.00 81 1012.5
20260510061018 13 278 4.8 9.7 0.00 0.00 0.00 81 1012.5
20260510060515 13 265 1.6 12.9 0.00 0.00 0.00 80 1012.7
20260510060011 13 110 0.0 4.8 0.00 0.00 0.00 81 1012.7
20260510055507 13 90 1.6 3.2 0.00 0.00 0.00 81 1012.8
20260510055005 13 140 0.0 3.2 0.00 0.00 0.00 81 1012.6
20260510054500 13 213 1.6 6.4 0.00 0.00 0.00 81 1012.6
20260510053956 13 101 1.6 3.2 0.00 0.00 0.00 80 1013.0
20260510053451 13 61 0.0 6.4 0.00 0.00 0.00 80 1013.0
20260510052947 13 191 1.6 11.3 0.00 0.00 0.00 81 1013.0
20260510052443 13 247 1.6 6.4 0.00 0.00 0.00 82 1013.0
20260510051940 13 122 4.8 6.4 0.00 0.00 0.00 82 1013.0
20260510051436 12 6 0.0 3.2 0.00 0.00 0.00 84 1013.0
20260510050932 12 328 1.6 3.2 0.00 0.00 0.00 86 1012.7
20260510050429 12 104 3.2 3.2 0.00 0.00 0.00 84 1012.7
20260510045927 12 72 1.6 3.2 0.00 0.00 0.00 84 1012.8
20260510045424 12 110 1.6 3.2 0.00 0.00 0.00 84 1012.8
20260510044920 11 89 0.0 0.0 0.00 0.00 0.00 86 1012.8
20260510044417 12 39 3.2 3.2 0.00 0.00 0.00 86 1012.4
20260510043914 12 104 3.2 6.4 0.00 0.00 0.00 84 1012.5
20260510043410 11 8 1.6 3.2 0.00 0.00 0.00 87 1012.6
20260510042908 10 9 0.0 0.0 0.00 0.00 0.00 90 1012.5
20260510042404 10 9 0.0 1.6 0.00 0.00 0.00 91 1012.6
20260510041900 10 9 0.0 0.0 0.00 0.00 0.00 90 1012.5
20260510041357 10 342 0.0 0.0 0.00 0.00 0.00 90 1012.6
20260510040855 10 342 0.0 0.0 0.00 0.00 0.00 89 1012.7
20260510040352 10 342 0.0 1.6 0.00 0.00 0.00 89 1012.4
20260510035847 10 334 0.0 0.0 0.00 0.41 0.41 90 1012.5
20260510035343 10 335 0.0 0.0 0.00 0.41 0.41 89 1012.6
20260510034839 10 329 0.0 0.0 0.00 0.41 0.41 89 1012.4
20260510034337 10 316 0.0 0.0 0.00 0.41 0.41 88 1012.3
20260510033833 11 309 0.0 0.0 0.00 0.41 0.41 88 1012.2
20260510033330 11 313 0.0 0.0 0.00 0.41 0.41 87 1012.3
20260510032826 11 316 0.0 1.6 0.00 0.41 0.41 87 1012.2
20260510032323 11 313 0.0 1.6 0.00 0.41 0.41 86 1012.3
20260510031819 11 319 0.0 0.0 0.00 0.41 0.41 85 1012.3
20260510031315 11 334 0.0 0.0 0.00 0.41 0.41 85 1012.1
20260510030815 11 356 0.0 1.6 0.00 0.41 0.41 84 1012.0
20260510030311 12 4 0.0 3.2 0.00 0.41 0.41 82 1012.0
20260510025809 12 359 0.0 0.0 0.00 0.41 0.41 82 1012.2
20260510025306 12 157 0.0 3.2 0.00 0.41 0.41 82 1012.2
20260510024803 12 291 0.0 1.6 0.00 0.41 0.41 82 1012.1
20260510024300 11 281 0.0 1.6 0.00 0.41 0.41 83 1012.2
20260510023756 12 289 3.2 3.2 0.00 0.41 0.41 83 1012.2
20260510023253 11 284 0.0 0.0 0.00 0.41 0.41 84 1012.0
20260510022749 11 284 0.0 1.6 0.00 0.41 0.41 82 1012.0
20260510022244 12 282 0.0 1.6 0.00 0.41 0.41 83 1012.1
20260510021743 12 278 1.6 1.6 0.00 0.41 0.41 82 1011.8
20260510021242 12 276 0.0 1.6 0.00 0.41 0.41 80 1011.8
20260510020737 12 143 1.6 1.6 0.00 0.41 0.41 79 1011.6
20260510020236 12 290 0.0 0.0 0.00 0.41 0.41 82 1011.8
20260510015733 12 8 0.0 0.0 0.00 0.41 0.41 82 1011.7
20260510015229 12 304 0.0 0.0 0.00 0.41 0.41 82 1011.6
20260510014724 12 295 0.0 0.0 0.00 0.41 0.41 80 1011.6
20260510014222 12 293 0.0 3.2 0.00 0.41 0.41 81 1011.6
20260510013717 12 291 0.0 0.0 0.00 0.41 0.41 81 1011.6
20260510013214 12 291 0.0 1.6 0.00 0.41 0.41 82 1011.3
20260510012713 12 289 0.0 1.6 0.00 0.41 0.41 80 1011.5
20260510012209 13 286 0.0 1.6 0.00 0.41 0.41 78 1011.4
20260510011704 13 299 0.0 1.6 0.00 0.41 0.41 78 1011.4
20260510011200 13 291 3.2 3.2 0.00 0.41 0.41 77 1011.5
20260510010656 13 295 1.6 3.2 0.00 0.41 0.41 77 1011.2
20260510010153 13 295 1.6 1.6 0.00 0.41 0.41 77 1011.2
20260510005649 13 157 1.6 3.2 0.00 0.41 0.41 77 1011.2
20260510005146 13 317 0.0 0.0 0.00 0.41 0.41 77 1010.8
20260510004645 13 303 0.0 0.0 0.00 0.41 0.41 77 1010.9
20260510004142 13 297 1.6 1.6 0.00 0.41 0.41 77 1011.1
20260510003639 13 304 0.0 0.0 0.00 0.41 0.41 77 1010.6
20260510003135 13 304 0.0 0.0 0.00 0.41 0.41 75 1010.7
20260510002635 13 304 0.0 0.0 0.00 0.41 0.41 75 1010.5
20260510002132 14 304 1.6 1.6 0.00 0.41 0.41 74 1010.5
20260510001628 14 302 0.0 1.6 0.00 0.41 0.41 73 1010.6
20260510001128 15 296 0.0 1.6 0.00 0.41 0.41 72 1010.5
20260510000627 15 296 0.0 1.6 0.00 0.41 0.41 71 1010.3
20260510000125 15 273 3.2 4.8 0.00 0.41 0.41 68 1010.3
20260509235621 15 267 3.2 4.8 0.00 0.41 0.41 68 1010.2
20260509235118 15 262 0.0 4.8 0.00 0.41 0.41 68 1010.4
20260509234614 15 285 3.2 9.7 0.00 0.41 0.41 68 1010.2
20260509234112 15 204 1.6 3.2 0.00 0.41 0.41 68 1010.1
20260509233609 16 272 3.2 3.2 0.00 0.41 0.41 67 1010.2
20260509233107 16 267 3.2 6.4 0.00 0.41 0.41 66 1010.0
20260509232603 16 274 0.0 6.4 0.00 0.41 0.41 67 1010.1
20260509232100 16 263 8.0 11.3 0.00 0.41 0.41 67 1010.2
20260509231556 16 256 6.4 9.7 0.00 0.41 0.41 66 1010.2
20260509231054 16 258 1.6 3.2 0.00 0.41 0.41 67 1010.2
20260509230550 16 247 0.0 4.8 0.00 0.41 0.41 67 1010.3
20260509230048 16 260 6.4 9.7 0.00 0.41 0.41 66 1010.3
20260509225543 16 252 3.2 9.7 0.00 0.41 0.41 65 1010.4
20260509225039 16 275 6.4 14.5 0.00 0.41 0.41 65 1010.3
20260509224535 16 266 4.8 12.9 0.00 0.41 0.41 64 1010.5
20260509224032 16 233 14.5 17.7 0.00 0.41 0.41 63 1010.6
20260509223529 17 289 3.2 9.7 0.00 0.41 0.41 67 1010.4
20260509223027 17 251 6.4 11.3 0.00 0.41 0.41 63 1010.3
20260509222522 17 259 4.8 11.3 0.00 0.41 0.41 65 1010.3
20260509222018 17 201 4.8 9.7 0.00 0.41 0.41 65 1010.4
20260509221514 17 228 8.0 14.5 0.00 0.41 0.41 64 1010.3
20260509221010 16 220 11.3 14.5 0.00 0.41 0.41 65 1010.5
20260509220506 17 187 4.8 9.7 0.00 0.41 0.41 65 1010.4
20260509220003 16 227 6.4 9.7 0.00 0.41 0.41 65 1010.4
20260509215458 16 231 4.8 17.7 0.00 0.41 0.41 66 1010.4
20260509214955 17 305 11.3 20.9 0.00 0.41 0.41 63 1010.5
20260509214453 17 273 6.4 14.5 0.00 0.41 0.41 65 1010.4
20260509213949 17 278 12.9 17.7 0.00 0.41 0.41 63 1010.5
20260509213445 17 227 6.4 12.9 0.00 0.41 0.41 64 1010.3
20260509212943 17 284 12.9 14.5 0.00 0.41 0.41 62 1010.4
20260509212440 16 223 8.0 11.3 0.00 0.41 0.41 64 1010.3
20260509211936 16 272 9.7 14.5 0.00 0.41 0.41 64 1010.3
20260509211432 16 304 12.9 24.1 0.00 0.41 0.41 64 1010.4
20260509210928 17 282 14.5 29.0 0.00 0.41 0.41 64 1010.3
20260509210426 17 288 17.7 27.4 0.00 0.41 0.41 63 1010.3
20260509205921 18 250 12.9 20.9 0.00 0.41 0.41 62 1010.5
20260509205420 17 265 9.7 14.5 0.00 0.41 0.41 64 1010.3
20260509204917 17 257 3.2 12.9 0.00 0.41 0.41 64 1010.6
20260509204413 17 244 4.8 6.4 0.00 0.41 0.41 65 1010.4
20260509203910 17 270 8.0 14.5 0.00 0.41 0.41 66 1010.4
20260509203406 16 300 9.7 22.5 0.00 0.41 0.41 66 1010.6
20260509202904 17 267 9.7 25.7 0.00 0.41 0.41 64 1010.4
20260509202359 17 274 6.4 14.5 0.00 0.41 0.41 67 1010.7
20260509201854 17 282 8.0 14.5 0.00 0.41 0.41 67 1010.6
20260509201350 17 251 4.8 11.3 0.00 0.41 0.41 67 1010.7
20260509200847 16 267 9.7 16.1 0.00 0.41 0.41 70 1010.8
20260509200342 16 254 8.0 9.7 0.00 0.41 0.41 68 1010.8
20260509195839 16 249 3.2 9.7 0.00 0.41 0.41 71 1010.9
20260509195339 16 275 6.4 6.4 0.00 0.41 0.41 70 1011.1
20260509194839 15 260 4.8 12.9 0.00 0.41 0.41 69 1011.1
20260509194335 15 275 6.4 14.5 0.00 0.41 0.41 68 1010.9
20260509193833 16 285 8.0 12.9 0.00 0.41 0.41 68 1010.9
20260509193332 15 243 8.0 14.5 0.00 0.41 0.41 69 1011.1
20260509192829 16 254 9.7 12.9 0.00 0.41 0.41 69 1010.9
20260509192325 16 285 6.4 16.1 0.00 0.41 0.41 67 1010.9
20260509191820 15 193 12.9 17.7 0.00 0.41 0.41 68 1011.1
20260509191316 15 254 14.5 24.1 0.00 0.41 0.41 67 1011.2
20260509190812 15 202 8.0 12.9 0.00 0.41 0.41 71 1011.1
20260509190310 15 202 6.4 11.3 0.00 0.41 0.41 74 1011.1
20260509185807 15 250 3.2 4.8 0.00 0.41 0.41 73 1010.9
20260509185306 15 273 3.2 4.8 0.00 0.41 0.41 77 1010.9
20260509184800 14 283 1.6 4.8 0.00 0.41 0.41 75 1010.9
20260509184258 14 273 0.0 4.8 0.00 0.41 0.41 78 1010.9
20260509183754 14 254 3.2 4.8 0.00 0.41 0.41 83 1011.3
20260509183249 14 292 0.0 4.8 0.00 0.41 0.41 81 1011.1
20260509182745 14 245 4.8 6.4 0.00 0.41 0.41 80 1011.2
20260509182243 14 259 3.2 4.8 0.00 0.41 0.41 80 1011.2
20260509181740 13 286 0.0 4.8 0.00 0.41 0.41 79 1011.2
20260509181237 13 300 3.2 6.4 0.00 0.41 0.41 80 1011.2
20260509180734 13 290 0.0 3.2 0.00 0.41 0.41 80 1011.3
20260509180231 13 210 0.0 1.6 0.00 0.41 0.41 81 1011.1
20260509175727 13 200 4.8 4.8 0.00 0.41 0.41 81 1011.1
20260509175223 13 250 1.6 3.2 0.00 0.41 0.41 83 1011.4
20260509174719 13 284 3.2 6.4 0.00 0.41 0.41 80 1011.2
20260509174215 13 259 0.0 1.6 0.00 0.41 0.41 84 1011.2
20260509173711 13 213 0.0 1.6 0.00 0.41 0.41 82 1011.1
20260509173207 13 213 3.2 4.8 0.00 0.41 0.41 83 1011.2
20260509172703 12 239 1.6 4.8 0.00 0.41 0.41 84 1011.2
20260509172200 12 215 0.0 1.6 0.00 0.41 0.41 84 1011.3
20260509171655 12 259 1.6 1.6 0.00 0.41 0.41 83 1011.1
20260509171151 12 248 0.0 0.0 0.00 0.41 0.41 83 1011.3
20260509170649 12 193 3.2 3.2 0.00 0.41 0.41 83 1011.3
20260509170145 12 165 1.6 3.2 0.00 0.41 0.41 85 1011.4
20260509165643 12 214 3.2 3.2 0.00 0.41 0.41 86 1011.3
20260509165139 12 151 0.0 3.2 0.00 0.41 0.41 88 1011.1
20260509164635 12 151 4.8 6.4 0.00 0.41 0.41 87 1011.4
20260509164131 12 101 3.2 3.2 0.00 0.41 0.41 88 1011.2
20260509163628 12 264 1.6 3.2 0.00 0.41 0.41 88 1011.2
20260509163123 12 198 0.0 1.6 0.00 0.41 0.41 91 1011.5
20260509162616 11 207 6.4 6.4 0.00 0.41 0.41 91 1011.2
20260509162112 11 140 1.6 3.2 0.00 0.41 0.41 90 1011.4
20260509161609 11 201 1.6 6.4 0.00 0.41 0.41 89 1011.5
20260509161108 12 201 3.2 3.2 0.00 0.41 0.41 90 1011.7
20260509160605 12 281 0.0 0.0 0.00 0.41 0.41 90 1011.7
20260509160100 12 242 1.6 4.8 0.00 0.41 0.41 91 1011.8
20260509155557 11 279 3.2 4.8 0.00 0.41 0.41 90 1011.8
20260509155053 11 206 4.8 4.8 0.00 0.41 0.41 91 1011.7
20260509154549 12 208 1.6 3.2 0.00 0.41 0.41 93 1011.9
20260509154047 11 229 3.2 4.8 0.18 0.41 0.41 93 1011.9
20260509153543 11 168 3.2 4.8 0.18 0.41 0.41 92 1011.9
20260509153035 11 176 0.0 1.6 0.00 0.38 0.38 93 1012.0
20260509152530 11 204 1.6 3.2 0.00 0.38 0.38 94 1012.1
20260509152028 11 202 1.6 3.2 0.00 0.38 0.38 93 1012.1
20260509151523 11 213 0.0 4.8 0.00 0.38 0.38 93 1012.0
20260509151021 10 202 3.2 4.8 0.00 0.38 0.38 92 1012.0
20260509150518 11 188 0.0 3.2 0.00 0.38 0.38 93 1012.2
20260509150017 11 260 1.6 4.8 0.00 0.38 0.38 93 1012.0
20260509145512 10 250 1.6 3.2 0.00 0.38 0.38 93 1012.1
20260509145007 10 167 3.2 4.8 0.00 0.38 0.38 94 1012.1
20260509144504 10 237 3.2 4.8 0.00 0.38 0.38 94 1011.8
20260509144001 11 161 1.6 3.2 0.00 0.38 0.38 95 1011.8
20260509143459 11 254 3.2 4.8 0.00 0.38 0.38 95 1011.9
20260509142955 11 252 0.0 4.8 0.00 0.38 0.38 94 1011.8
20260509142452 10 259 0.0 0.0 0.00 0.38 0.38 94 1011.7
20260509141947 11 274 0.0 3.2 0.00 0.38 0.38 95 1011.8
20260509141444 11 286 1.6 4.8 0.00 0.38 0.38 94 1012.1
20260509140941 11 300 0.0 3.2 0.13 0.38 0.38 94 1012.0
20260509140437 10 234 0.0 3.2 0.13 0.38 0.38 94 1012.0
20260509135936 10 164 3.2 4.8 0.00 0.36 0.36 94 1011.9
20260509135433 10 189 1.6 3.2 0.00 0.36 0.36 96 1011.9
20260509134930 10 125 0.0 4.8 0.00 0.36 0.36 95 1011.9
20260509134427 10 141 1.6 3.2 0.00 0.36 0.36 95 1011.8
20260509133925 10 197 0.0 0.0 0.00 0.36 0.36 96 1012.0
20260509133421 10 190 1.6 3.2 0.00 0.36 0.36 96 1012.1
20260509132920 10 221 1.6 1.6 0.00 0.36 0.36 96 1011.9
20260509132417 10 208 0.0 1.6 0.00 0.36 0.36 97 1012.2
20260509131914 10 221 0.0 1.6 0.00 0.36 0.36 97 1012.0
20260509131411 10 102 1.6 1.6 0.00 0.36 0.36 98 1012.1
20260509130908 10 124 0.0 1.6 0.00 0.36 0.36 99 1012.1
20260509130403 10 205 0.0 0.0 0.18 0.36 0.36 98 1012.3
20260509125900 9 189 0.0 1.6 0.18 0.36 0.36 99 1012.3
20260509125356 10 196 1.6 3.2 0.13 0.33 0.33 99 1012.4
20260509124852 9 209 0.0 0.0 0.00 0.30 0.30 99 1012.4
20260509124350 9 209 0.0 0.0 0.00 0.30 0.30 99 1012.5
20260509123848 9 209 0.0 0.0 0.00 0.30 0.30 99 1012.3
20260509123345 9 257 0.0 0.0 0.18 0.30 0.30 99 1012.3
20260509122840 9 257 0.0 1.6 0.13 0.28 0.28 99 1012.5
20260509122337 9 183 4.8 4.8 0.13 0.28 0.28 99 1012.4
20260509121834 9 204 3.2 3.2 0.00 0.25 0.25 98 1012.5
20260509121331 9 208 0.0 0.0 0.18 0.25 0.25 99 1012.4
20260509120830 9 214 0.0 0.0 0.18 0.25 0.25 99 1012.3
20260509120327 9 208 0.0 0.0 0.13 0.23 0.23 99 1012.2
20260509115825 9 207 0.0 0.0 0.13 0.23 0.23 99 1012.4
20260509115322 9 207 0.0 1.6 0.00 0.20 0.20 98 1012.4
20260509114820 9 272 0.0 1.6 0.00 0.20 0.20 98 1012.5
20260509114318 9 273 0.0 0.0 0.00 0.20 0.20 98 1012.3
20260509113817 8 273 0.0 1.6 0.00 0.20 0.20 99 1012.4
20260509113314 8 236 0.0 1.6 0.00 0.20 0.20 99 1012.1
20260509112810 8 160 1.6 1.6 0.18 0.20 0.20 99 1012.2
20260509112308 8 107 0.0 3.2 0.00 0.18 0.18 99 1012.1
20260509111804 8 176 0.0 1.6 0.00 0.18 0.18 99 1012.4
20260509111301 8 180 0.0 0.0 0.13 0.18 0.18 99 1012.2
20260509110759 8 176 0.0 1.6 0.13 0.18 0.18 99 1012.2
20260509110255 8 115 1.6 3.2 0.00 0.15 0.15 99 1012.1
20260509105754 8 354 0.0 0.0 0.00 0.15 0.15 99 1012.1
20260509105251 8 354 0.0 0.0 0.00 0.15 0.15 99 1012.1
20260509104747 8 354 0.0 0.0 0.18 0.15 0.15 99 1012.0
20260509104244 8 354 0.0 0.0 0.18 0.15 0.15 99 1012.2
20260509103743 8 354 0.0 0.0 0.00 0.13 0.13 99 1011.9
20260509103239 8 354 0.0 1.6 0.00 0.13 0.13 98 1012.3
20260509102738 8 354 1.6 1.6 0.00 0.13 0.13 97 1012.0
20260509102234 8 312 0.0 0.0 0.00 0.13 0.13 95 1012.3
20260509101731 8 330 0.0 0.0 0.18 0.13 0.13 95 1012.1
20260509101227 8 317 0.0 0.0 0.18 0.13 0.13 95 1012.3
20260509100724 8 311 0.0 0.0 0.13 0.10 0.10 95 1012.3
20260509100222 8 319 1.6 3.2 0.13 0.10 0.10 95 1012.4
20260509095718 8 314 0.0 0.0 0.00 0.08 0.08 95 1012.5
20260509095215 8 295 0.0 0.0 0.18 0.08 0.08 94 1012.5
20260509094712 8 308 0.0 0.0 0.18 0.08 0.08 94 1012.4
20260509094209 9 308 0.0 0.0 0.00 0.05 0.05 93 1012.5
20260509093708 9 308 0.0 0.0 0.00 0.05 0.05 93 1012.6
20260509093204 9 282 0.0 0.0 0.00 0.05 0.05 91 1012.5
20260509092702 9 286 0.0 1.6 0.00 0.05 0.05 90 1012.5
20260509092200 9 276 1.6 1.6 0.00 0.05 0.05 90 1012.7
20260509091658 10 308 0.0 0.0 0.13 0.05 0.05 87 1012.4
20260509091154 10 292 0.0 0.0 0.30 0.05 0.05 84 1012.5
20260509090652 10 295 0.0 3.2 0.18 0.03 0.03 84 1012.5
20260509090149 10 302 3.2 6.4 0.00 0.00 0.00 82 1012.5
20260509085646 11 292 3.2 6.4 0.00 0.00 0.00 80 1012.6
20260509085137 11 275 6.4 16.1 0.00 0.00 0.00 76 1012.8
20260509084635 11 252 6.4 14.5 0.00 0.00 0.00 76 1012.5
20260509084131 12 253 9.7 12.9 0.00 0.00 0.00 73 1012.5
20260509083629 12 290 6.4 14.5 0.00 0.00 0.00 70 1012.3
20260509083125 12 282 9.7 14.5 0.00 0.00 0.00 70 1012.0
20260509082623 12 290 6.4 12.9 0.00 0.00 0.00 66 1012.0
20260509082119 12 260 1.6 9.7 0.00 0.00 0.00 65 1012.2
20260509081616 12 285 4.8 6.4 0.00 0.00 0.00 64 1011.8
20260509081114 12 289 3.2 9.7 0.00 0.00 0.00 63 1011.8
20260509080612 12 269 4.8 11.3 0.00 0.00 0.00 65 1011.5
20260509080109 12 176 0.0 1.6 0.00 0.00 0.00 64 1011.7
20260509075607 12 237 4.8 6.4 0.00 0.00 0.00 63 1011.6
20260509075105 12 242 1.6 4.8 0.00 0.00 0.00 62 1011.7
20260509074601 12 287 0.0 3.2 0.00 0.00 0.00 64 1011.5
20260509074057 11 230 0.0 9.7 0.00 0.00 0.00 67 1011.5
20260509073554 11 326 0.0 0.0 0.00 0.00 0.00 67 1011.4
20260509073050 11 326 0.0 0.0 0.00 0.00 0.00 70 1011.4
20260509072546 10 326 0.0 0.0 0.00 0.00 0.00 70 1011.4
20260509072043 10 318 0.0 0.0 0.00 0.00 0.00 74 1011.4